Rogers, AR

7:43 AM CDT on July 30, 2016 (GMT -0500)
Rogers Municipal-Carter

Weather History for KROG - November, 2013

Change the Weather History Date:

Monday, November 18, 2013

  Actual Average Record
Temperature  
Mean Temperature 49 °F -  
Max Temperature 61 °F 55 °F 71 °F (1999)
Min Temperature 37 °F 38 °F 10 °F (2014)
Degree Days  
Heating Degree Days 16    
Moisture  
Dew Point 26 °F    
Average Humidity 43    
Maximum Humidity 79    
Minimum Humidity 19    
Precipitation  
Precipitation 0.00 in - - ()
Sea Level Pressure  
Sea Level Pressure 30.23 in    
Wind  
Wind Speed 6 mph (NNE)    
Max Wind Speed 13 mph    
Max Gust Speed -    
Visibility 9 miles    
Events      
Averages and records for this station are not official NWS values.
T = Trace of Precipitation, MM = Missing Value Source: NWS Daily Summary

Daily Weather History Graph

Daily Weather History Graph

Search for Another Location

Airport or City:

Trip Planner

Search our weather history database for the weather conditions in past years. The results will help you decide how hot, cold, wet, or windy it might be!

Date:

Astronomy

Nov. 18, 2013 Rise Set
Actual Time 6:57 AM CST 5:06 PM CST
Civil Twilight 6:29 AM CST 5:33 PM CST
Nautical Twilight 5:58 AM CST 6:04 PM CST
Astronomical Twilight 5:27 AM CST 6:35 PM CST
Moon 6:09 PM CST (11/18) 7:45 AM CST (11/18)
Length of Visible Light 11h 04m
Length of Day
10h 09m
Full, 99% of the Moon is Illuminated
Nov 18
Full
Nov 25
Last Quarter
Dec 2
New
Dec 9
First Quarter
Dec 17
Full

Hourly Weather History & Observations

Time (CST) Temp. Windchill Dew Point Humidity Pressure Visibility Wind Dir Wind Speed Gust Speed Precip Events Conditions
12:57 AM 48.9 °F - 28.9 °F 46% 30.09 in 10.0 mi NNW 5.8 mph - N/A   Clear
1:57 AM 48.0 °F - 30.0 °F 50% 30.09 in 10.0 mi North 4.6 mph - N/A   Clear
2:57 AM 44.1 °F 40.1 °F 30.9 °F 60% 30.12 in 10.0 mi West 6.9 mph - N/A   Clear
3:57 AM 43.0 °F 40.3 °F 30.9 °F 62% 30.16 in 10.0 mi WNW 4.6 mph - N/A   Clear
4:57 AM 42.1 °F 39.2 °F 30.9 °F 65% 30.18 in 10.0 mi WNW 4.6 mph - N/A   Clear
5:57 AM 41.0 °F 38.0 °F 30.9 °F 67% 30.21 in 10.0 mi West 4.6 mph - N/A   Clear
6:57 AM 37.0 °F 34.5 °F 30.9 °F 79% 30.24 in 10.0 mi WNW 3.5 mph - N/A   Clear
7:57 AM 41.0 °F 38.0 °F 33.1 °F 73% 30.26 in 10.0 mi NNW 4.6 mph - N/A   Clear
8:57 AM 46.0 °F 43.1 °F 35.1 °F 66% 30.26 in 10.0 mi NE 5.8 mph - N/A   Clear
9:57 AM 52.0 °F - 35.1 °F 53% 30.26 in 10.0 mi NNE 6.9 mph - N/A   Clear
10:57 AM 57.0 °F - 19.9 °F 24% 30.27 in 10.0 mi NNE 12.7 mph - N/A   Clear
11:57 AM 59.0 °F - 17.1 °F 20% 30.25 in 10.0 mi NE 10.4 mph - N/A   Clear
12:57 PM 60.1 °F - 19.0 °F 20% 30.24 in 9.0 mi North 6.9 mph - N/A   Clear
1:57 PM 61.0 °F - 19.9 °F 21% 30.23 in 10.0 mi NNE 11.5 mph - N/A   Clear
2:57 PM 61.0 °F - 18.0 °F 19% 30.22 in 10.0 mi NE 6.9 mph - N/A   Clear
3:57 PM 59.0 °F - 21.0 °F 23% 30.23 in 10.0 mi NE 9.2 mph - N/A   Clear
4:57 PM 57.0 °F - 19.0 °F 23% 30.24 in 10.0 mi East 8.1 mph - N/A   Clear
5:57 PM 54.0 °F - 21.0 °F 28% 30.26 in 10.0 mi ENE 4.6 mph - N/A   Clear
6:57 PM 52.0 °F - 21.0 °F 30% 30.27 in 10.0 mi ENE 5.8 mph - N/A   Clear
7:57 PM 51.1 °F - 21.9 °F 32% 30.28 in 5.0 mi East 5.8 mph - N/A   Haze
8:57 PM 50.0 °F - 23.0 °F 35% 30.28 in 4.0 mi East 5.8 mph - N/A   Haze
9:57 PM 48.9 °F - 25.0 °F 39% 30.27 in 6.0 mi East 4.6 mph - N/A   Haze
10:57 PM 48.0 °F - 26.1 °F 42% 30.26 in 7.0 mi East 5.8 mph - N/A   Clear
11:57 PM 48.0 °F - 27.0 °F 44% 30.26 in 9.0 mi East 8.1 mph - N/A   Clear